Regional Weather Roundup
Issued by NWS

Home | Current Version | Previous Version | Text Only | Print | Product List | Glossary On
Versions: 1 2 3 4 5 6 7 8 9 10 11 12 13 14 15 16 17 18 19 20 21 22 23 24 25 26 27 28 29 30 31 32 33 34 35 36 37 38 39 40 41 42 43 44 45 46 47 48 49 50
867
ASUS46 KSEW 290410
RWRWA

WASHINGTON REGIONAL WEATHER ROUNDUP
NATIONAL WEATHER SERVICE SEATTLE WA
900 PM PDT SUN AUG 28 2016

NOTE:"FAIR" INDICATES FEW OR NO CLOUDS BELOW 12,000 FEET WITH NO
SIGNIFICANT WEATHER AND/OR OBSTRUCTIONS TO VISIBILITY.

WAZ505-507>509-290500-
SEATTLE, TACOMA, EVERETT, AND VICINITY

CITY           SKY/WX    TMP DP  RH WIND       PRES   REMARKS
EVERETT        CLOUDY    59  53  80 N5        30.06S
BOEING FIELD   MOCLDY    66  54  65 NW8       30.05R
RENTON         MOCLDY    64  54  69 W6        30.04R
SEATAC AIRPORT MOCLDY    62  52  69 N6        30.05S
JBLM-MCCHORD   PTCLDY    63  53  70 NE3       30.05R
PUYALLUP       FAIR      61  54  77 CALM      30.05S
BREMERTON      MOCLDY    55  52  88 CALM      30.08F
JBLM-FT LEWIS  PTCLDY    64  53  68 NW2       30.04S
TACOMA NARROWS PTCLDY    61  52  72 CALM      30.06R
$$

WAZ001-503-506-510-514-515-290500-
NORTH INTERIOR

CITY           SKY/WX    TMP DP  RH WIND       PRES   REMARKS
BELLINGHAM     CLOUDY    60  58  92 CALM      30.06R
FRIDAY HARBOR  CLOUDY    58  55  90 CALM      30.08S
EASTSOUND      CLOUDY    57  55  94 CALM      30.05F
PORT ANGELES   CLOUDY    55  52  89 CALM      30.08S
EDIZ HOOK      FAIR      53  52  96 W3        30.08R
PORT TOWNSEND  FAIR      55  54  94 NW6       30.07R
NAS WHIDBEY    CLOUDY    56  52  86 NW3       30.10S
ARLINGTON      CLOUDY    59  48  67 W3        30.07R
BURLINGTON     PTCLDY    59  55  88 VRB3      30.06S
$$

WAZ020-022-039-040-504-511-512-290500-
SOUTHWEST INTERIOR

CITY           SKY/WX    TMP DP  RH WIND       PRES   REMARKS
SHELTON        PTCLDY    62  55  77 NW3       30.03S
OLYMPIA        CLEAR     64  51  62 N3        30.04S
CHEHALIS       NOT AVBL
KELSO          CLEAR     67  55  65 N5        30.04R
VANCOUVER      CLEAR     75  53  46 NW5       29.99R
SCAPPOOSE, OR  CLEAR     72  53  51 NW6       29.99R
PORTLAND, OR   PTCLDY    75  53  46 NW6       29.99R
$$

WAZ021-516-517-290500-
WASHINGTON COAST

CITY           SKY/WX    TMP DP  RH WIND       PRES   REMARKS
FORKS          CLOUDY    57  56  96 CALM      30.05F
HOQUIAM        CLEAR     59  54  83 W5        30.07R
ASTORIA, OR    CLEAR     60  54  80 SW5       30.06S
$$

WAZ019-023-024-040-518-519-290500-
CASCADE MOUNTAINS AND COLUMBIA GORGE

CITY           SKY/WX    TMP DP  RH WIND       PRES   REMARKS
STAMPEDE PASS  PTCLDY    63  34  33 CALM      30.15S
TROUTDALE, OR  CLEAR     71  54  54 CALM      29.99R
THE DALLES, OR CLEAR     81  44  27 W8        29.94R
$$

WAZ026-027-041>044-520-521-290500-
EAST SLOPES

CITY           SKY/WX    TMP DP  RH WIND       PRES   REMARKS
OMAK           CLOUDY    70  38  31 NW7       30.02R
WENATCHEE      MOCLDY    74  39  28 N9        30.02R
ELLENSBURG     MOCLDY    68  44  42 MISG      30.04R
YAKIMA         PTCLDY    70  50  49 S5        30.00R
$$

WAZ028-034-035-290500-
COLUMBIA BASIN

CITY           SKY/WX    TMP DP  RH WIND       PRES   REMARKS
EPHRATA        CLOUDY    74  40  29 N5        30.02R
MOSES LAKE     MOCLDY    72  44  36 SE5       30.02R
PASCO          PTCLDY    70  52  52 N3        29.96S
HERMISTON, OR  CLEAR     72  43  35 E6        29.96R
$$

WAZ036>038-290500-
NORTHEAST WASHINGTON

CITY           SKY/WX    TMP DP  RH WIND       PRES   REMARKS
SPOKANE GEIGER MOCLDY    73  33  23 SW5       30.09R
SPOKANE FELTS  PTCLDY    65  37  35 CALM      30.08R
FAIRCHILD AFB  PTCLDY    66  30  25 W3        30.09R
COEURDALENE,ID PTCLDY    64  39  39 NE6       30.08R
DEER PARK      CLEAR     58  31  35 CALM      30.09R
$$

WAZ029>033-290500-
SOUTHEAST WASHINGTON

CITY           SKY/WX    TMP DP  RH WIND       PRES   REMARKS
PULLMAN        PTCLDY    63  34  33 CALM      30.11R
LEWISTON, ID   PTCLDY    77  38  24 S6        30.02R
WALLA WALLA    PTCLDY    73  44  35 E10       30.00R
PENDLETON, OR  CLEAR     74  35  24 NE10      30.00S
$$




USA.gov is the U.S. government's official web portal to all federal, state and local government web resources and services.